GW3922 Weather Reports


Display with metric or nautical units.
time (UTC)temp
F
wind
direction
speed
MPH
gust
MPH
rain 1hr
in
rain 24hr
in
rain mn
in
humidity
%
barometer
mb
20260503184522 66 47 3.0 14.0 0.00 0.00 0.00 33 1017.8
20260503183028 65 309 3.0 9.0 0.00 0.00 0.00 31 1018.1
20260503181509 65 79 0.0 7.0 0.00 0.00 0.00 38 1018.3
20260503180024 65 342 2.0 12.0 0.00 0.00 0.00 33 1018.5
20260503174527 64 250 3.0 14.0 0.00 0.00 0.00 35 1018.5
20260503173039 64 179 3.0 11.0 0.00 0.00 0.00 35 1018.7
20260503171534 63 63 1.0 10.0 0.00 0.00 0.00 40 1019.1
20260503081508 37 60 0.0 0.0 0.00 0.00 0.00 93 1017.8
20260503071520 38 68 0.0 1.0 0.00 0.00 0.00 93 1017.1
20260503054525 40 66 0.0 1.0 0.00 0.00 0.00 90 1016.8
20260503053007 40 73 0.0 1.0 0.00 0.00 0.00 90 1016.9
20260503051509 41 73 0.0 1.0 0.00 0.00 0.00 89 1016.9
20260503050011 42 22 2.0 3.0 0.00 0.00 0.00 89 1016.7
20260503044528 42 129 0.0 1.0 0.00 0.00 0.00 88 1016.6
20260503043024 42 55 0.0 2.0 0.00 0.00 0.00 87 1016.6
20260503041510 43 72 0.0 0.0 0.00 0.00 0.00 85 1016.4
20260503040008 44 72 0.0 1.0 0.00 0.00 0.00 84 1016.2
20260503034517 44 72 0.0 1.0 0.00 0.00 0.00 83 1016.0
20260503033042 45 72 0.0 1.0 0.00 0.00 0.00 79 1015.9
20260503031534 46 72 0.0 1.0 0.00 0.00 0.00 78 1015.8
20260503030006 47 126 0.0 0.0 0.00 0.00 0.00 77 1015.6
20260503024515 48 125 0.0 0.0 0.00 0.00 0.00 73 1015.5
20260503023035 49 125 0.0 0.0 0.00 0.00 0.00 69 1015.4
20260503021524 50 125 0.0 0.0 0.00 0.00 0.00 68 1015.2
20260503020024 51 141 0.0 1.0 0.00 0.00 0.00 65 1015.1
20260503014530 53 141 0.0 1.0 0.00 0.00 0.00 61 1014.7
20260503013012 54 141 0.0 1.0 0.00 0.00 0.00 56 1014.5
20260503011522 56 141 0.0 1.0 0.00 0.00 0.00 52 1014.4
20260503010030 58 145 1.0 7.0 0.00 0.00 0.00 52 1014.1
20260503004528 59 141 0.0 2.0 0.00 0.00 0.00 54 1013.9
20260503003030 59 174 3.0 6.0 0.00 0.00 0.00 47 1013.5
20260503001510 59 130 4.0 7.0 0.00 0.00 0.00 49 1013.3
20260503000003 58 139 1.0 2.0 0.00 0.00 0.00 58 1013.0
20260502234507 59 108 0.0 1.0 0.00 0.00 0.00 58 1012.5
20260502233009 60 137 0.0 0.0 0.00 0.00 0.00 51 1012.2
20260502231516 60 162 0.0 2.0 0.00 0.00 0.00 58 1012.0
20260502230016 60 142 0.0 3.0 0.00 0.00 0.00 60 1012.0
20260502224503 61 169 1.0 4.0 0.00 0.00 0.00 62 1011.9
20260502223006 62 167 1.0 5.0 0.00 0.00 0.00 59 1011.9
20260502221508 63 78 0.0 1.0 0.00 0.00 0.00 57 1011.7
20260502220012 64 69 0.0 1.0 0.00 0.00 0.00 53 1011.3
20260502214516 64 65 1.0 3.0 0.00 0.00 0.00 55 1011.3
20260502213004 65 61 0.0 3.0 0.00 0.00 0.00 53 1011.2
20260502211510 65 37 1.0 2.0 0.00 0.00 0.00 56 1011.0
20260502210013 64 20 5.0 8.0 0.00 0.00 0.00 51 1011.1
20260502204521 64 149 0.0 4.0 0.00 0.00 0.00 51 1011.2
20260502203024 63 68 0.0 2.0 0.00 0.00 0.00 54 1011.3
20260502201504 63 302 4.0 7.0 0.00 0.00 0.00 54 1011.5
20260502200008 64 329 2.0 6.0 0.00 0.00 0.00 53 1011.5
20260502194513 64 3 4.0 7.0 0.00 0.00 0.00 50 1011.7
20260502193022 64 105 0.0 2.0 0.00 0.00 0.00 51 1011.9
20260502191525 62 274 1.0 6.0 0.00 0.00 0.00 54 1012.0
20260502190020 62 293 2.0 7.0 0.00 0.00 0.00 53 1012.1